Location: Sommers-Bausch Observatory
(40.0037°N, 105.2635°W)
Time: 22:51:14
(UTC-06:00)

Daily predictions for brighter satellites

Satellite Brightness Start Highest point End
(mag) Time Altitude Azimuth Time Altitude Azimuth Time Altitude Azimuth
Cosmos 1782 3.5 20:41:38 10° N 20:45:24 36° ENE 20:49:08 10° SE
SL-08 ROCKET BODY 4.5 20:40:46 10° S 20:46:38 58° E 20:52:28 10° NNE
GPS 2-05 Rocket1 4.1 20:43:33 10° SW 20:46:43 27° SSE 20:49:52 10° ESE
ERBS 2.8 20:43:24 10° NW 20:46:50 57° SW 20:50:13 10° SSE
CZ-4 DEB 3.0 20:44:57 10° SSE 20:48:02 51° ENE 20:51:08 10° N
H-2A R/B 2.9 20:46:28 10° S 20:50:09 72° WSW 20:53:53 10° NNW
Coronas F rocket 1.2 20:48:17 10° S 20:50:55 84° W 20:53:35 10° N
Envisat 3.8 20:47:15 10° SE 20:51:47 34° ENE 20:56:20 10° N
NOSS 2-2 (E) 4.3 20:50:29 10° SW 20:54:35 61° NW 20:59:25 10° NNE
Cosmos 1624 Rocket 4.2 20:50:23 10° SSW 20:55:39 83° WNW 21:01:01 10° NNE
Cosmos 1939 Rocket 3.5 20:54:25 10° SE 20:57:59 36° ENE 21:01:37 10° N
Atlas Centaur 2 2.8 20:55:42 10° SW 20:58:11 17° S 21:00:38 10° SE
Cosmos 2084 3.6 21:01:40 10° S 21:05:19 40° ESE 21:08:55 10° NE
Cosmos 1908 Rocket 4.0 21:02:33 10° SSE 21:06:41 41° E 21:10:52 10° NNE
Cosmos 1733 Rocket 3.2 21:04:16 10° S 21:08:40 78° W 21:13:05 10° N
ERS-1 Rocket 3.0 21:04:04 10° SSE 21:09:04 74° ENE 21:14:07 10° N
ATLAS 5 CENTAUR R/B 2.9 21:03:24 10° NW 21:09:23 62° WSW 21:15:45 10° SSE
Cosmos 1378 Rocket 4.3 21:05:35 10° N 21:09:33 34° ENE 21:13:08 12° SE
Cosmos 407 Rocket 3.6 21:04:33 10° NNW 21:09:50 70° ENE 21:15:08 10° SSE
Meteor 2-6 Rocket 4.3 21:06:36 10° N 21:12:35 78° E 21:18:23 10° SSE
deb Chang Zheng 4 3.8 21:10:36 10° NNE 21:14:55 51° E 21:19:14 10° S
H-2A R/B 4.2 21:14:40 10° E 21:16:27 12° ENE 21:18:14 10° NE
NOSS 5 (C) 4.2 21:14:52 10° SSW 21:18:22 66° ESE 21:21:27 10° NE
Cosmos 1452 Rocket 3.5 21:14:37 10° S 21:19:47 63° ESE 21:25:01 10° NNE
YAOGAN 6 4.0 21:18:37 15° ESE 21:20:28 22° ENE 21:23:16 10° NNE
Cosmos 1408 3.1 21:18:22 10° SSE 21:21:49 40° E 21:25:15 10° NNE
Cosmos 1242 Rocket 4.1 21:20:16 10° NNE 21:23:08 21° ENE 21:24:44 16° ESE
COSMOS 2406 4.0 21:18:32 10° NNW 21:24:04 51° WSW 21:29:34 10° S
Cosmos 1190 Rocket 4.3 21:19:23 10° NNW 21:24:33 70° WSW 21:29:42 10° S
Cosmos 1825 2.4 21:22:53 10° SSE 21:26:33 48° E 21:30:16 10° NNE
Nimbus 7 Rocket 4.5 21:20:57 10° NNE 21:26:51 61° ESE 21:32:45 10° S
Cosmos 2154 Rocket 4.0 21:21:04 10° S 21:27:15 70° E 21:33:25 10° NNE
USA 234 4.4 21:24:04 10° E 21:28:09 17° ESE 21:30:49 14° SSE
ALOS 4.3 21:24:30 10° SSW 21:28:25 27° W 21:32:23 10° NW
CZ-4B R/B 4.4 21:24:42 10° NE 21:28:45 25° E 21:31:08 18° SE
PSLV R/B 4.1 21:28:00 21° ESE 21:29:12 29° ENE 21:31:49 10° N
Cosmos 1833 Rocket 4.4 21:26:13 10° N 21:30:12 19° NE 21:33:42 11° E
SPOT 1/Viking Rocket 4.5 21:28:03 16° ESE 21:31:23 32° ENE 21:35:59 10° N
Cosmos 2278 Rocket 2.2 21:26:00 10° S 21:31:34 62° ESE 21:37:11 10° NNE
Cosmos 1844 Rocket 3.3 21:28:56 10° SW 21:34:31 61° WNW 21:40:07 10° NNE
Cosmos 1184 Rocket 3.1 21:32:43 17° SSE 21:35:03 48° E 21:38:18 10° NNE
H-2A R/B 2.0 21:32:35 13° SSE 21:36:26 89° E 21:40:42 10° NNW
Cosmos 1844 3.9 21:30:45 10° SSW 21:36:31 80° WNW 21:42:20 10° NNE
MetOp-A 4.3 21:34:03 17° SE 21:38:06 57° ENE 21:43:20 10° N
CZ-3C R/B 4.0 21:25:34 10° WSW 21:46:10 23° SSW 21:50:58 16° SSE
ISS -3.0 21:44:53 10° WSW 21:48:07 68° NW 21:51:22 10° NE
CENTAUR R/B 4.5 21:44:15 10° NW 21:51:09 33° WSW 21:58:17 10° S
Cosmos 2082 Rocket 3.1 21:46:49 10° N 21:52:00 34° ENE 21:54:52 22° ESE
Cosmos 1850 Rocket 4.4 21:47:52 10° N 21:53:02 48° ENE 21:55:43 26° SE
Intercosmos 25 3.2 21:52:28 30° SSE 21:53:48 48° E 21:56:53 10° NNE
Terra 3.5 21:52:21 16° E 21:53:54 19° ENE 21:57:10 10° NNE
Cosmos 676 Rocket 4.4 21:50:04 10° NNW 21:55:12 62° WSW 21:59:12 17° S
Cosmos 1862 3.9 21:51:17 10° SSW 21:55:17 60° W 21:59:21 10° N
Cosmos 1238 Rocket 2.6 21:52:16 10° N 21:55:33 77° W 21:57:47 23° S
SL-08 RB Rocket 4.4 21:55:26 27° ESE 21:57:15 38° ENE 22:01:33 10° N
Cosmos 1174 4.1 21:54:39 10° NW 21:57:38 40° WSW 21:58:43 27° SSW
SPOT 5 3.2 21:55:02 18° S 21:59:05 79° WSW 22:04:29 10° NNW
COS B Rocket 3.9 21:55:47 10° N 21:59:44 54° W 22:02:44 14° SSW
Cosmos 1954 Rocket 4.1 21:54:41 10° NNW 21:59:53 73° WSW 22:03:20 22° S
Okean 2 Rocket 3.0 22:02:42 17° S 22:06:09 87° W 22:10:35 10° N
Okean 3 3.7 22:02:13 10° NNW 22:06:28 67° W 22:08:59 23° S
Cosmos 2297 3.7 22:01:08 10° S 22:06:44 61° ESE 22:12:23 10° NNE
OAO 3 Rocket 4.0 22:03:47 10° SW 22:08:09 31° SSE 22:08:12 31° SSE
Cosmos 1606 4.3 22:06:09 10° NNW 22:09:41 32° W 22:12:55 12° SSW
USA 229 DEB 4.3 22:06:04 10° NNW 22:12:58 50° NE 22:16:52 26° ESE
USA 229 4.3 22:06:11 10° NNW 22:13:04 50° NE 22:16:58 26° ESE
Cosmos 1741 Rocket 4.0 22:08:15 10° NNW 22:13:29 71° ENE 22:15:37 36° SE
NOAA 11 4.2 22:12:14 31° SSE 22:14:55 71° ENE 22:20:24 10° N
Cosmos 1782 Rocket 4.4 22:15:16 10° SSW 22:19:35 49° W 22:23:57 10° N
CZ-4C R/B 4.0 22:19:47 37° E 22:20:11 38° ENE 22:23:59 10° N
Cosmos 2218 Rocket 4.0 22:18:42 24° S 22:22:46 74° E 22:29:10 10° N
GPS 2-05 Rocket1 3.9 22:21:12 10° WSW 22:23:46 34° SW 22:23:46 34° SW
COSMOS 2487 3.9 22:21:51 10° NW 22:25:08 33° WSW 22:26:19 26° SW
Cosmos 1110 Rocket 4.4 22:28:13 40° ESE 22:28:36 40° ESE 22:33:28 10° NE
DELTA 2 DEB (DPAF) 4.3 22:29:45 48° ESE 22:30:31 56° ENE 22:34:55 10° N
SL-08 R/B 4.5 22:29:04 25° S 22:33:03 85° E 22:39:34 10° N
Cosmos 1975 Rocket 4.3 22:31:25 10° NNW 22:35:24 37° W 22:37:34 22° SW
APEX 4.2 22:32:03 13° SW 22:35:27 55° WNW 22:40:26 10° NNE
CARTOSAT-1 3.9 22:35:50 45° E 22:36:08 46° ENE 22:40:17 10° N
Cosmos 1959 Rocket 4.4 22:34:38 25° S 22:38:25 84° W 22:44:34 10° N
Cosmos 1727 Rocket 3.9 22:32:28 10° N 22:38:38 70° E 22:40:46 42° SSE
Cosmos 2369 Rocket 4.3 22:42:12 12° ENE 22:42:12 12° ENE 22:42:58 10° ENE
DNEPR-1 R/B 4.1 22:36:46 10° NW 22:41:53 56° WSW 22:42:52 46° SSW
Meteor 2-19 Rocket 4.4 22:44:09 42° SSE 22:46:15 71° E 22:52:20 10° NNE
Cosmos 614 Rocket 4.2 22:42:07 10° NNW 22:47:08 62° WSW 22:48:29 44° SSW
Cosmos 1536 Rocket 3.4 22:43:53 10° N 22:48:23 89° E 22:48:50 72° S
ARGOS 3.6 22:46:45 34° SSW 22:48:52 56° W 22:54:08 10° NNW
CZ-4 R/B 4.1 22:47:29 10° N 22:52:06 62° WNW 22:54:00 34° SW
H-2A R/B 2.0 22:53:53 57° SSE 22:55:04 86° ENE 23:00:25 10° NNW
Meteor 1-20 Rocket 4.1 22:53:50 53° S 22:55:09 77° E 23:00:41 10° NNE
Meteor 2-8 Rocket 4.4 22:51:40 10° N 22:57:51 83° W 22:59:47 47° S
Okean 1 3.7 22:54:51 10° N 22:58:20 55° NE 22:58:20 55° NE
Cosmos 1339 Rocket 4.4 22:56:47 10° N 23:02:58 90° E 23:04:38 52° S
Meteor 1-25 Rocket 4.4 23:05:46 39° SSW 23:07:58 71° W 23:13:49 10° N
USA 234 3.1 23:05:14 10° NE 23:11:47 76° SE 23:17:45 13° SW
Cosmos 1821 Rocket 4.3 23:11:41 45° E 23:12:03 46° E 23:17:57 10° NNE
Cosmos 1833 Rocket 2.7 23:09:03 10° NNW 23:14:37 66° WSW 23:15:24 58° SSW
Landsat 7 4.4 23:15:00 45° WSW 23:15:33 47° W 23:20:09 10° NNW
IGS 5A 4.1 23:23:40 52° WNW 23:23:40 52° WNW 23:27:15 10° NNW
Cosmos 1302 Rocket 4.1 23:24:09 62° ENE 23:24:09 62° ENE 23:28:52 10° NNE
Cosmos 1934 Rocket 4.3 23:24:54 47° E 23:24:54 47° E 23:30:36 10° NNE
ISS -0.2 23:22:57 10° WNW 23:25:02 16° NNW 23:27:08 10° NNE
Cosmos 1025 Rocket 4.2 23:22:23 10° N 23:25:33 36° NE 23:25:33 36° NE
Cosmos 1812 4.0 23:23:43 10° NNW 23:26:39 39° WNW 23:26:39 39° WNW
Terra 2.4 23:31:14 47° W 23:31:16 47° W 23:35:52 10° NNW
Cosmos 1300 Rocket 4.1 23:32:04 54° WNW 23:32:04 54° WNW 23:36:11 10° N
Meteor 2-21 4.3 23:33:49 72° SE 23:34:18 77° E 23:40:31 10° N
Okean 1 Rocket 3.6 23:35:20 57° NW 23:35:20 57° NW 23:39:20 10° N
Cosmos 2082 Rocket 3.2 23:30:57 10° NW 23:36:00 34° WSW 23:36:43 32° WSW
Cosmos 1809 Rocket 4.3 23:37:33 75° SSE 23:38:04 83° E 23:44:17 10° N
Lacrosse 5 rocket 3.9 23:43:57 12° NE 23:43:57 12° NE 23:44:17 10° NE
Meteor 2-4 Rocket 4.0 23:36:01 10° N 23:41:05 53° ENE 23:41:05 53° ENE
Spot 4 4.5 23:42:42 49° W 23:42:42 49° W 23:47:10 10° NNW
Meteor 1-13 Rocket 4.2 23:36:44 10° NNW 23:42:41 78° W 23:43:05 74° SW
Okean 1-7 Rocket 4.4 23:40:55 10° NNW 23:44:34 48° WNW 23:44:34 48° WNW
Cosmos 1535 Rocket 4.5 23:50:49 70° SW 23:51:34 80° W 23:58:00 10° N
